GW0774 Weather Reports


Display with metric or nautical units.
time (UTC)temp
F
wind
direction
speed
MPH
gust
MPH
rain 1hr
in
rain 24hr
in
rain mn
in
humidity
%
barometer
mb
20260509090047 56 260 7.0 14.0 0.00 0.44 0.25 82 999.3
20260509085538 56 256 7.0 14.0 0.00 0.44 0.25 82 999.4
20260509085042 56 257 7.0 15.0 0.00 0.44 0.25 82 999.4
20260509084545 56 250 8.0 15.0 0.00 0.44 0.25 81 999.5
20260509084039 56 249 9.0 14.0 0.00 0.44 0.25 81 999.5
20260509083538 56 241 6.0 15.0 0.00 0.44 0.25 81 999.4
20260509083044 56 254 6.0 16.0 0.00 0.44 0.25 81 999.2
20260509082539 56 281 8.0 16.0 0.00 0.44 0.25 81 999.1
20260509082042 56 284 8.0 18.0 0.00 0.44 0.25 81 999.1
20260509081551 56 277 10.0 18.0 0.00 0.44 0.25 81 999.2
20260509081039 56 277 10.0 17.0 0.00 0.44 0.25 81 999.1
20260509080538 56 284 11.0 17.0 0.00 0.44 0.25 81 999.0
20260509080057 56 290 10.0 16.0 0.00 0.44 0.25 81 999.1
20260509075542 56 323 8.0 14.0 0.00 0.44 0.25 82 999.1
20260509075042 56 298 9.0 17.0 0.00 0.44 0.25 81 999.3
20260509074552 56 289 11.0 17.0 0.00 0.44 0.25 81 999.4
20260509074040 56 288 11.0 17.0 0.00 0.44 0.25 81 999.3
20260509073539 56 290 11.0 17.0 0.00 0.44 0.25 82 999.2
20260509073122 56 298 7.0 13.0 0.00 0.44 0.25 83 999.3
20260509072542 56 251 6.0 11.0 0.00 0.44 0.25 83 999.2
20260509072038 56 249 5.0 11.0 0.00 0.44 0.25 83 999.3
20260509071549 56 263 5.0 11.0 0.00 0.44 0.25 82 999.4
20260509071039 56 240 6.0 11.0 0.00 0.44 0.25 83 999.4
20260509070541 56 264 5.0 14.0 0.00 0.44 0.25 83 999.4
20260509070055 56 267 6.0 14.0 0.00 0.44 0.25 83 999.5
20260509065538 56 252 6.0 13.0 0.00 0.44 0.25 83 999.5
20260509065038 56 281 7.0 13.0 0.00 0.44 0.25 84 999.5
20260509064548 56 252 4.0 13.0 0.00 0.44 0.25 83 999.5
20260509064044 57 297 5.0 12.0 0.00 0.44 0.25 83 999.6
20260509063539 57 252 5.0 13.0 0.00 0.44 0.25 82 999.6
20260509063059 57 252 7.0 13.0 0.00 0.44 0.25 82 999.5
20260509062539 57 300 6.0 20.0 0.00 0.44 0.25 81 999.5
20260509062038 58 253 7.0 20.0 0.00 0.44 0.25 79 999.6
20260509061556 58 265 8.0 18.0 0.00 0.44 0.25 80 999.5
20260509061039 58 299 9.0 18.0 0.00 0.44 0.25 81 999.5
20260509060539 58 251 7.0 15.0 0.00 0.44 0.25 81 999.6
20260509055538 58 245 9.0 17.0 0.00 0.44 0.25 82 999.6
20260509055041 59 242 8.0 19.0 0.00 0.44 0.25 83 999.7
20260509054607 59 240 10.0 19.0 0.00 0.44 0.25 83 999.6
20260509054038 59 263 9.0 17.0 0.00 0.44 0.25 84 999.6
20260509053540 59 296 10.0 17.0 0.00 0.44 0.25 84 999.5
20260509053049 59 269 8.0 16.0 0.00 0.44 0.25 85 999.5
20260509052538 59 262 8.0 16.0 0.00 0.44 0.25 85 999.4
20260509052039 59 250 9.0 17.0 0.00 0.44 0.25 85 999.3
20260509051548 59 245 8.0 17.0 0.00 0.44 0.25 86 999.3
20260509051041 59 252 9.0 15.0 0.00 0.44 0.25 86 999.2
20260509050538 59 263 8.0 15.0 0.00 0.44 0.25 87 999.3
20260509050044 59 286 8.0 16.0 0.00 0.44 0.25 88 999.2
20260509045539 59 251 8.0 17.0 0.00 0.44 0.25 87 999.1
20260509045039 59 261 9.0 18.0 0.00 0.44 0.25 87 999.1
20260509044550 59 253 9.0 18.0 0.00 0.44 0.25 87 999.1
20260509044038 59 269 8.0 16.0 0.00 0.44 0.25 88 999.1
20260509043539 59 258 8.0 16.0 0.00 0.44 0.25 88 999.2
20260509043053 59 238 8.0 19.0 0.00 0.44 0.25 88 999.3
20260509042541 60 248 10.0 19.0 0.00 0.44 0.25 87 999.1
20260509042038 60 249 10.0 19.0 0.00 0.44 0.25 87 999.2
20260509041551 60 267 8.0 18.0 0.00 0.44 0.25 86 999.2
20260509041041 60 273 8.0 18.0 0.00 0.44 0.25 86 999.2
20260509040539 60 274 9.0 18.0 0.00 0.44 0.25 86 999.4
20260509040121 61 316 8.0 18.0 0.00 0.44 0.25 88 999.3
20260509035539 60 275 9.0 18.0 0.00 0.44 0.25 87 999.5
20260509035039 60 301 10.0 20.0 0.00 0.44 0.25 86 999.5
20260509034555 60 242 8.0 20.0 0.00 0.44 0.25 86 999.6
20260509034038 60 259 11.0 20.0 0.00 0.44 0.25 85 999.4
20260509033539 60 238 11.0 23.0 0.00 0.44 0.25 86 999.3
20260509033049 60 281 12.0 23.0 0.00 0.44 0.25 86 999.3
20260509032540 61 278 9.0 26.0 0.00 0.44 0.25 87 999.2
20260509032045 61 241 11.0 26.0 0.00 0.44 0.25 86 999.2
20260509031549 61 275 7.0 24.0 0.00 0.44 0.25 87 999.3
20260509031038 61 273 11.0 24.0 0.00 0.44 0.25 86 999.2
20260509030540 62 250 13.0 24.0 0.00 0.44 0.25 84 999.1
20260509030050 62 218 11.0 22.0 0.00 0.44 0.25 85 998.9
20260509025544 62 294 14.0 25.0 0.00 0.44 0.25 83 998.8
20260509025044 62 256 9.0 25.0 0.00 0.44 0.25 85 998.7
20260509024549 62 288 13.0 25.0 0.00 0.44 0.25 85 998.6
20260509024039 62 277 11.0 24.0 0.00 0.44 0.25 86 998.6
20260509023538 62 286 14.0 24.0 0.00 0.44 0.25 86 998.6
20260509023047 62 275 14.0 26.0 0.06 0.44 0.25 86 998.5
20260509022541 61 279 15.0 26.0 0.18 0.44 0.25 86 998.5
20260509022041 62 280 13.0 21.0 0.19 0.44 0.25 89 998.5
20260509021547 61 270 12.0 23.0 0.19 0.44 0.25 89 998.5
20260509021040 62 276 10.0 24.0 0.19 0.44 0.25 89 998.7
20260509020539 61 269 13.0 24.0 0.19 0.44 0.25 88 998.6
20260509020049 61 264 14.0 23.0 0.19 0.44 0.25 90 998.6
20260509015541 61 265 13.0 23.0 0.19 0.44 0.25 90 998.6
20260509015040 61 296 13.0 23.0 0.19 0.44 0.25 92 998.6
20260509014548 60 315 11.0 23.0 0.19 0.44 0.25 92 998.7
20260509014041 60 281 12.0 19.0 0.19 0.44 0.25 92 998.8
20260509013538 60 267 11.0 17.0 0.18 0.44 0.25 91 998.8
20260509013050 61 250 10.0 20.0 0.11 0.36 0.17 89 999.0
20260509012539 62 248 10.0 20.0 0.00 0.25 0.06 87 998.9
20260509012040 62 298 14.0 21.0 0.00 0.25 0.06 85 998.9
20260509011603 62 284 13.0 21.0 0.00 0.25 0.06 84 999.0
20260509011043 62 242 10.0 21.0 0.00 0.25 0.06 87 999.1
20260509010539 62 266 13.0 21.0 0.00 0.25 0.06 85 999.3
20260509010051 62 340 9.0 19.0 0.00 0.25 0.06 85 999.3
20260509005539 62 300 13.0 21.0 0.00 0.25 0.06 84 999.4
20260509005038 62 298 11.0 21.0 0.00 0.25 0.06 85 999.5
20260509004605 62 272 8.0 20.0 0.00 0.25 0.06 85 999.7
20260509004040 62 276 9.0 20.0 0.00 0.25 0.06 86 999.7
20260509003539 62 300 11.0 20.0 0.00 0.25 0.06 85 999.9
20260509003053 62 269 12.0 21.0 0.00 0.25 0.06 85 1000.2
20260509002538 61 312 13.0 21.0 0.00 0.25 0.06 86 1000.1
20260509002040 61 269 11.0 20.0 0.00 0.25 0.06 87 1000.1
20260509001548 61 294 10.0 20.0 0.00 0.24 0.05 89 1000.1
20260509001040 60 312 13.0 20.0 0.00 0.24 0.05 89 1000.1
20260509000539 60 321 10.0 20.0 0.00 0.24 0.05 92 1000.0
20260509000050 59 294 10.0 20.0 0.00 0.24 0.05 93 1000.0
20260508235542 59 281 12.0 24.0 0.00 0.24 0.05 92 999.9
20260508235041 59 306 13.0 24.0 0.00 0.24 0.05 91 999.9
20260508234549 60 261 12.0 32.0 0.00 0.24 0.05 88 999.8
20260508234040 61 292 17.0 32.0 0.00 0.24 0.05 83 999.6
20260508233539 62 292 14.0 27.0 0.00 0.24 0.05 78 999.5
20260508233050 63 338 10.0 20.0 0.00 0.24 0.05 79 999.4
20260508232546 62 274 10.0 20.0 0.00 0.24 0.05 80 999.5
20260508232039 62 300 8.0 19.0 0.00 0.24 0.05 80 999.7
20260508231554 62 306 10.0 19.0 0.00 0.24 0.05 80 999.8
20260508231039 62 277 9.0 18.0 0.00 0.24 0.05 78 999.8
20260508230539 62 257 7.0 14.0 0.00 0.24 0.05 77 999.6
20260508230046 63 279 6.0 14.0 0.00 0.24 0.05 78 999.6
20260508225539 63 317 3.0 9.0 0.00 0.24 0.05 78 999.7
20260508225040 63 249 2.0 11.0 0.00 0.24 0.05 78 999.6
20260508224545 63 274 4.0 11.0 0.00 0.24 0.05 78 999.8
20260508224039 63 289 6.0 11.0 0.00 0.24 0.05 77 1000.1
20260508223539 63 271 6.0 10.0 0.00 0.24 0.05 79 1000.1
20260508223050 63 226 4.0 11.0 0.00 0.24 0.05 79 1000.3
20260508222540 63 273 4.0 11.0 0.00 0.24 0.05 78 1000.1
20260508222039 63 259 4.0 9.0 0.00 0.24 0.05 78 1000.2
20260508221551 64 42 5.0 9.0 0.00 0.24 0.05 78 1000.2
20260508221041 65 279 3.0 7.0 0.00 0.24 0.05 79 1000.5
20260508220539 64 51 3.0 7.0 0.00 0.24 0.05 79 1000.5
20260508220054 64 257 2.0 8.0 0.00 0.24 0.05 80 1000.5
20260508215539 63 240 4.0 8.0 0.00 0.24 0.05 79 1000.5
20260508215039 63 289 3.0 9.0 0.00 0.24 0.05 78 1000.6
20260508214554 63 18 3.0 9.0 0.00 0.24 0.05 80 1000.5
20260508214038 63 260 0.0 9.0 0.00 0.24 0.05 81 1000.4
20260508213539 63 282 2.0 9.0 0.00 0.24 0.05 80 1000.3
20260508213045 62 292 2.0 8.0 0.00 0.24 0.05 81 1000.2
20260508212538 62 320 2.0 10.0 0.00 0.24 0.05 81 1000.1
20260508212035 62 201 2.0 10.0 0.00 0.24 0.05 82 1000.1
20260508211549 62 0 3.0 10.0 0.00 0.24 0.05 82 1000.0
20260508211039 61 265 0.0 10.0 0.00 0.24 0.05 83 1000.0
20260508210539 61 300 3.0 10.0 0.00 0.24 0.05 83 1000.0
20260508210050 61 269 2.0 8.0 0.00 0.24 0.05 84 999.9
20260508205538 60 234 3.0 8.0 0.00 0.24 0.05 85 999.8
20260508205038 60 252 1.0 8.0 0.00 0.24 0.05 86 999.7
20260508204549 59 279 3.0 8.0 0.00 0.24 0.05 86 999.7
20260508204042 59 219 3.0 6.0 0.00 0.24 0.05 86 999.7
20260508203538 59 277 1.0 6.0 0.00 0.24 0.05 87 999.8
20260508203051 59 279 2.0 7.0 0.00 0.24 0.05 86 999.8
20260508202540 59 251 2.0 9.0 0.00 0.24 0.05 86 999.9
20260508202039 59 273 1.0 9.0 0.00 0.24 0.05 87 1000.0
20260508201545 59 269 2.0 7.0 0.00 0.24 0.05 87 1000.0
20260508201042 59 245 3.0 9.0 0.00 0.24 0.05 88 1000.1
20260508200541 58 246 2.0 9.0 0.00 0.24 0.05 89 1000.0
20260508200046 58 100 2.0 8.0 0.00 0.24 0.05 90 1000.1
20260508195538 58 224 1.0 5.0 0.00 0.24 0.05 90 1000.0
20260508195038 57 300 1.0 8.0 0.00 0.24 0.05 90 1000.0
20260508194555 57 271 2.0 8.0 0.00 0.24 0.05 90 999.9
20260508194036 57 115 0.0 4.0 0.00 0.24 0.05 90 999.8
20260508193537 57 0 1.0 5.0 0.00 0.24 0.05 90 999.9
20260508193103 57 209 0.0 5.0 0.00 0.24 0.05 89 1000.0
20260508192537 57 106 1.0 5.0 0.00 0.24 0.05 90 999.9
20260508192037 57 263 1.0 6.0 0.00 0.24 0.05 90 1000.0
20260508191546 57 263 1.0 6.0 0.00 0.24 0.05 90 1000.0
20260508191036 57 111 1.0 5.0 0.00 0.24 0.05 90 1000.1
20260508190538 57 90 1.0 8.0 0.00 0.24 0.05 91 1000.1
20260508190046 57 284 2.0 8.0 0.00 0.24 0.05 92 1000.1
20260508185537 57 329 2.0 8.0 0.00 0.24 0.05 93 1000.3
20260508185036 57 240 0.0 4.0 0.00 0.24 0.05 93 1000.3
20260508184559 56 240 1.0 4.0 0.00 0.24 0.05 93 1000.3
20260508184037 56 0 0.0 3.0 0.00 0.24 0.05 93 1000.6
20260508183536 56 0 0.0 2.0 0.00 0.24 0.05 93 1000.5
20260508183048 56 0 0.0 4.0 0.00 0.24 0.05 93 1000.5
20260508182536 56 240 1.0 4.0 0.00 0.24 0.05 93 1000.6
20260508182036 56 240 0.0 3.0 0.00 0.24 0.05 93 1000.5
20260508181549 56 240 0.0 2.0 0.00 0.24 0.05 93 1000.4
20260508181039 56 240 0.0 2.0 0.00 0.24 0.05 93 1000.4
20260508180536 56 0 0.0 2.0 0.00 0.24 0.05 94 1000.3
20260508180050 56 174 0.0 3.0 0.00 0.24 0.05 94 1000.3
20260508175535 56 97 0.0 3.0 0.00 0.24 0.05 94 1000.4
20260508175039 56 78 1.0 3.0 0.00 0.24 0.05 94 1000.4
20260508174545 56 0 0.0 3.0 0.00 0.23 0.04 94 1000.5
20260508174036 56 219 0.0 3.0 0.00 0.23 0.04 94 1000.6
20260508173537 56 0 0.0 3.0 0.00 0.23 0.04 94 1000.6
20260508173044 55 0 1.0 3.0 0.00 0.23 0.04 95 1000.6
20260508172536 55 0 0.0 3.0 0.00 0.23 0.04 95 1000.6
20260508172036 55 0 0.0 0.0 0.00 0.23 0.04 94 1000.6
20260508171544 55 0 0.0 0.0 0.00 0.23 0.04 94 1000.5
20260508171039 55 0 0.0 0.0 0.00 0.23 0.04 94 1000.5
20260508170536 54 0 0.0 0.0 0.00 0.23 0.04 94 1000.5
20260508170048 54 0 0.0 0.0 0.00 0.23 0.04 94 1000.6
20260508165535 54 0 0.0 0.0 0.00 0.23 0.04 94 1000.6
20260508165036 54 0 0.0 0.0 0.00 0.23 0.04 94 1000.5
20260508164547 54 0 0.0 0.0 0.00 0.23 0.04 94 1000.5
20260508164040 54 0 0.0 0.0 0.00 0.23 0.04 94 1000.6
20260508163538 53 0 0.0 0.0 0.00 0.23 0.04 94 1000.6
20260508163049 54 0 0.0 0.0 0.00 0.23 0.04 94 1000.6
20260508162538 54 0 0.0 0.0 0.00 0.23 0.04 94 1000.5
20260508162039 53 0 0.0 0.0 0.00 0.23 0.04 93 1000.4
20260508161546 53 0 0.0 0.0 0.00 0.23 0.04 93 1000.5
20260508161038 53 0 0.0 0.0 0.00 0.23 0.04 93 1000.4
20260508160543 54 0 0.0 0.0 0.00 0.23 0.04 93 1000.4
20260508160105 54 0 0.0 0.0 0.00 0.23 0.04 93 1000.5
20260508155541 54 0 0.0 0.0 0.00 0.23 0.04 92 1000.6
20260508155038 55 0 0.0 0.0 0.00 0.23 0.04 93 1000.7
20260508154553 55 0 0.0 0.0 0.00 0.23 0.04 93 1000.6
20260508154038 55 0 0.0 1.0 0.00 0.23 0.04 93 1000.8
20260508153539 56 0 0.0 1.0 0.00 0.23 0.04 93 1000.8
20260508153048 56 0 0.0 1.0 0.00 0.23 0.04 93 1000.9
20260508152538 56 0 0.0 1.0 0.00 0.23 0.04 93 1000.9
20260508152038 56 0 0.0 1.0 0.00 0.23 0.04 92 1001.1
20260508151549 56 0 0.0 0.0 0.00 0.23 0.04 92 1001.1
20260508151039 56 0 0.0 0.0 0.00 0.23 0.04 92 1001.1
20260508150539 56 0 0.0 0.0 0.00 0.23 0.04 92 1001.3
20260508150049 57 0 0.0 0.0 0.00 0.23 0.04 92 1001.3
20260508145539 57 0 0.0 0.0 0.00 0.23 0.04 91 1001.5
20260508145039 57 0 0.0 1.0 0.00 0.23 0.04 91 1001.6
20260508144551 57 0 0.0 1.0 0.00 0.23 0.04 91 1001.6
20260508144039 58 0 0.0 2.0 0.00 0.23 0.04 91 1001.6
20260508143541 58 0 0.0 2.0 0.00 0.23 0.04 91 1001.6
20260508143105 58 0 0.0 6.0 0.00 0.23 0.04 91 1001.7
20260508142539 58 261 1.0 6.0 0.00 0.23 0.04 91 1001.6
20260508142039 58 274 3.0 6.0 0.00 0.23 0.04 91 1001.6
20260508141555 58 238 1.0 5.0 0.00 0.23 0.04 90 1001.5
20260508141039 58 222 2.0 4.0 0.00 0.23 0.04 90 1001.4
20260508140538 58 278 2.0 7.0 0.00 0.23 0.04 90 1001.4
20260508140050 58 230 2.0 8.0 0.00 0.23 0.04 90 1001.3
20260508135542 58 243 3.0 8.0 0.00 0.23 0.04 91 1001.3
20260508135038 58 228 3.0 8.0 0.00 0.23 0.04 91 1001.4
20260508134545 58 240 2.0 8.0 0.00 0.23 0.04 91 1001.4
20260508134040 58 283 3.0 7.0 0.00 0.23 0.04 91 1001.5
20260508133540 59 242 3.0 8.0 0.00 0.23 0.04 91 1001.5
20260508133053 59 287 4.0 8.0 0.00 0.23 0.04 92 1001.5
20260508132539 59 315 3.0 7.0 0.00 0.23 0.04 92 1001.5
20260508132039 59 252 3.0 7.0 0.00 0.23 0.04 92 1001.5
20260508131548 59 249 4.0 10.0 0.00 0.23 0.04 92 1001.6
20260508131039 60 246 4.0 10.0 0.02 0.23 0.04 92 1001.5
20260508130538 60 288 4.0 10.0 0.03 0.23 0.04 91 1001.5
20260508130054 60 284 4.0 10.0 0.04 0.23 0.04 91 1001.5
20260508125539 60 300 3.0 13.0 0.05 0.23 0.04 91 1001.4
20260508125039 60 289 6.0 13.0 0.06 0.23 0.04 91 1001.4
20260508124548 60 272 7.0 13.0 0.07 0.23 0.04 92 1001.3
20260508124038 59 300 7.0 13.0 0.09 0.23 0.04 92 1001.4
20260508123539 58 254 8.0 13.0 0.10 0.23 0.04 93 1001.5
20260508123046 58 261 8.0 14.0 0.11 0.22 0.03 93 1001.6
20260508122539 58 270 9.0 26.0 0.15 0.22 0.03 93 1001.5
20260508122040 58 274 10.0 26.0 0.16 0.22 0.03 94 1001.4
20260508121600 57 269 12.0 26.0 0.16 0.22 0.03 94 1001.4
20260508121041 57 300 11.0 23.0 0.15 0.21 0.02 94 1001.6
20260508120539 57 283 11.0 18.0 0.14 0.19 0.00 94 1001.7
20260508120046 57 263 9.0 19.0 0.13 0.18 0.00 94 1001.8
20260508115543 58 264 9.0 19.0 0.13 0.18 0.18 94 1001.9
20260508115038 58 311 10.0 17.0 0.11 0.16 0.16 94 1002.0
20260508114547 58 298 9.0 22.0 0.10 0.14 0.14 93 1002.0
20260508114039 59 302 11.0 22.0 0.09 0.14 0.14 93 1002.2
20260508113539 60 349 12.0 22.0 0.08 0.13 0.13 92 1002.0
20260508113055 61 250 7.0 12.0 0.06 0.11 0.11 93 1001.9
20260508112539 61 244 6.0 8.0 0.01 0.06 0.06 92 1001.8
20260508112041 61 230 3.0 4.0 0.01 0.06 0.06 92 1001.3
20260508111546 61 181 0.0 4.0 0.01 0.06 0.06 92 1000.9
20260508111040 61 181 0.0 4.0 0.00 0.05 0.05 92 1000.8
20260508110539 61 146 0.0 2.0 0.00 0.05 0.05 91 1000.9
20260508110052 61 144 0.0 1.0 0.00 0.05 0.05 91 1001.0
20260508105539 61 144 0.0 1.0 0.00 0.04 0.04 91 1001.1
20260508105039 61 0 0.0 1.0 0.01 0.04 0.04 91 1001.4
20260508104549 61 0 0.0 1.0 0.03 0.04 0.04 90 1001.5
20260508104040 61 218 0.0 1.0 0.03 0.04 0.04 90 1001.5
20260508103539 62 0 0.0 1.0 0.04 0.04 0.04 89 1001.5
20260508103051 62 232 0.0 1.0 0.04 0.04 0.04 89 1001.4
20260508102539 62 0 0.0 1.0 0.04 0.04 0.04 88 1001.6
20260508102039 62 0 0.0 1.0 0.04 0.04 0.04 87 1001.6
20260508101546 63 0 0.0 8.0 0.04 0.04 0.04 87 1001.6
20260508101040 63 232 0.0 8.0 0.04 0.04 0.04 86 1001.8
20260508100538 63 231 2.0 9.0 0.04 0.04 0.04 86 1001.8
20260508100048 64 261 2.0 9.0 0.04 0.04 0.04 85 1001.9
20260508095541 64 15 4.0 10.0 0.04 0.04 0.04 83 1001.9
20260508095040 65 61 4.0 10.0 0.03 0.03 0.03 81 1001.9
20260508094554 65 69 1.0 8.0 0.01 0.01 0.01 80 1001.9
20260508094039 65 230 2.0 5.0 0.00 0.00 0.00 80 1001.9
20260508093539 65 268 0.0 6.0 0.00 0.00 0.00 79 1001.7
20260508093042 65 237 1.0 6.0 0.00 0.00 0.00 78 1001.8
20260508092538 66 83 2.0 10.0 0.00 0.00 0.00 77 1001.9
20260508092039 66 0 2.0 10.0 0.00 0.00 0.00 77 1001.8
20260508091555 66 256 2.0 9.0 0.00 0.00 0.00 76 1001.6
20260508091039 66 32 3.0 14.0 0.00 0.00 0.00 76 1001.9
20260508090539 66 242 5.0 16.0 0.00 0.00 0.00 76 1002.1